This is the latest recevied weather packets stored in our database for station/object TG5ALY-16. If no packets are shown the sender has not sent any weather packets the latest 10 day(s).
| Time | Temp. | Humidity | Pressure | Rain* | Wind** | Luminosity | Snow |
|---|---|---|---|---|---|---|---|
| 1777911584 | 17.22° C | 75% | 1017 hPa | 0 mm | - | - | - |
| 1777910984 | 17.78° C | 75% | 1017 hPa | 0 mm | - | - | - |
| 1777910383 | 17.78° C | 73% | 1017 hPa | 0 mm | - | - | - |
| 1777909782 | 17.78° C | 73% | 1017 hPa | 0 mm | - | - | - |
| 1777909181 | 17.78° C | 73% | 1017 hPa | 0 mm | - | - | - |
| 1777908581 | 17.78° C | 72% | 1017 hPa | 0 mm | - | - | - |
| 1777907980 | 17.78° C | 72% | 1017 hPa | 0 mm | - | - | - |
| 1777907379 | 17.22° C | 74% | 1017 hPa | 0 mm | - | - | - |
| 1777906779 | 17.22° C | 75% | 1018 hPa | 0 mm | - | - | - |
| 1777906178 | 16.67° C | 77% | 1018 hPa | 0 mm | - | - | - |
| 1777905578 | 16.67° C | 77% | 1018 hPa | 0 mm | - | - | - |
| 1777904977 | 17.78° C | 77% | 1018 hPa | 0 mm | - | - | - |
| 1777904376 | 17.78° C | 77% | 1018 hPa | 0 mm | - | - | - |
| 1777903776 | 16.67° C | 79% | 1018 hPa | 0 mm | - | - | - |
| 1777903175 | 16.67° C | 79% | 1018 hPa | 0 mm | - | - | - |
| 1777902574 | 16.11° C | 81% | 1018 hPa | 0 mm | - | - | - |
| 1777901974 | 11.11° C | 93% | 1018 hPa | 0 mm | - | - | - |
| 1777901373 | 10.56° C | 93% | 1018 hPa | 0 mm | - | - | - |
| 1777900772 | 10.56° C | 93% | 1018 hPa | 0 mm | - | - | - |
| 1777900171 | 10.56° C | 93% | 1018 hPa | 0 mm | - | - | - |
| 1777899571 | 10.56° C | 93% | 1019 hPa | 0 mm | - | - | - |
| 1777898970 | 10.56° C | 94% | 1019 hPa | 0 mm | - | - | - |
| 1777898369 | 10.56° C | 94% | 1019 hPa | 0 mm | - | - | - |
| 1777897769 | 10° C | 94% | 1019 hPa | 0 mm | - | - | - |
| 1777897168 | 10° C | 94% | 1019 hPa | 0 mm | - | - | - |
* Rain latest hour (hover to see other rain measurements)
** Current wind speed in m/s (hover to see current wind gust speed)